[[{"header":{"parameterUnit":"m.s-1","parameterCategory":1,"la1":30.2991,"la2":30.254,"lo1":-89.0895,"lo2":-89.0444,"dy":0.0017,"dx":0.0017,"nx":28,"ny":28,"refTime":"2025-03-18T09:00:00:Z","depth":0,"parameterNumber":2,"parameterNumberName":"U-component_of_WINDS"},"data":[0,0,0,0,0,0,0,0,0,0,0,0,0,0,0,0,0,0,0,0,0,0,0,0,0,0,0,0,0,0,0,0,0,0,0,0,0,0,0,0,0,0,0,0,0,0,0,0,0,0,0,0,0,0,0,0,0,0,6.5088,6.509,0,6.5216,6.5218,6.5219,6.5155,6.5151,6.5148,6.5145,6.5276,6.5283,6.5289,0,0,0,0,0,0,0,0,0,0,0,0,0,6.479,6.4796,6.5088,6.509,6.5091,6.5216,6.5218,6.522,6.5155,6.5151,6.5147,6.5143,6.5274,6.5282,6.529,0,0,0,0,0,0,0,0,0,0,0,0,0,6.4919,6.4798,6.5088,6.5074,6.5074,6.5216,6.5218,6.522,6.5156,6.5151,6.5146,6.5141,6.5272,6.5281,6.5291,6.5454,0,0,6.5322,6.5326,0,0,0,0,0,0,0,0,6.4912,6.493,6.5075,6.5075,6.5076,6.5164,6.5161,6.5299,6.5157,6.5125,6.5145,6.5139,6.5243,6.5255,6.529,6.546,6.5465,6.5322,6.5329,6.5333,6.5336,0,0,0,0,0,0,0,6.4903,6.4924,6.5139,6.5077,6.5078,6.5063,6.5075,6.5187,6.5211,6.5127,6.5123,6.5139,6.5243,6.5281,6.5293,6.5467,6.5322,6.5331,6.5337,6.5341,6.5781,6.5786,0,0,0,0,0,0,6.4895,6.4917,6.5135,6.5143,6.498,6.5072,6.5086,6.5141,6.5209,6.5215,6.5143,6.5136,6.5266,6.5281,6.5297,6.5494,6.5333,6.5342,6.5348,6.5775,6.5782,6.5788,0,0,0,0,0,0,6.4888,6.4915,6.513,6.5029,6.5055,6.5083,6.5145,6.5146,6.5184,6.5221,6.5226,6.5178,6.5263,6.5283,6.5416,6.5498,6.5347,6.5356,6.5768,6.5777,6.5785,6.5888,0,0,0,0,0,0,6.488,6.4913,6.4974,6.5031,6.5061,6.5246,6.515,6.5152,6.5202,6.5193,6.5255,6.526,6.5261,6.5402,6.5426,6.5509,6.5363,6.5761,6.5772,6.5782,6.5878,6.5899,6.5918,0,0,0,0,0,6.487,6.4997,6.4977,6.5004,6.5138,6.525,6.5267,6.5265,6.5209,6.5271,6.5296,6.5258,6.5485,6.5416,6.5443,6.553,6.5756,6.5769,6.5781,6.5869,6.5895,6.5917,0,0,0,0,0,0,6.4948,6.5004,6.4983,6.5132,6.5187,6.5239,6.5317,6.5292,6.5364,6.5353,6.5347,6.5362,6.55,6.5528,6.545,6.5693,6.5612,6.5631,6.5669,6.5694,6.5714,6.5704,6.5372,0,0,0,0,0,6.4983,6.5069,6.5113,6.5241,6.527,6.529,6.5338,6.5332,6.5389,6.5412,6.5445,6.5502,6.5587,6.5642,6.5721,6.5882,6.5896,6.5955,6.5975,6.5992,6.6008,6.6098,6.6126,6.583,6.583,6.583,0,0,6.5055,6.5096,6.5151,6.5258,6.53,6.5391,6.5309,6.5408,6.5475,6.5426,6.5554,6.5582,6.5645,6.5793,6.586,6.5821,6.6093,6.6008,6.6021,6.6028,6.6114,6.6142,6.6167,6.5839,6.5837,6.5836,0,0,6.5233,6.5273,6.5384,6.5429,6.5494,6.5507,6.5534,6.5591,6.5608,6.5736,6.5702,6.5783,6.5928,6.5975,6.6018,6.622,6.6189,6.6246,6.635,6.6438,6.6461,6.6482,6.6556,6.6582,6.6262,6.6262,6.6262,0,6.5315,6.5449,6.5445,6.5548,6.5597,6.5558,6.5673,6.5716,6.5804,6.5839,6.5794,6.5977,6.6017,6.6177,6.6227,6.6262,6.6295,6.6238,6.6458,6.6479,6.6498,6.6568,6.6596,6.6269,6.6268,6.6267,6.6267,0,6.5548,6.5642,6.5725,6.5812,6.5871,6.5978,6.5992,6.6052,6.6042,6.606,6.6194,6.6241,6.633,6.6368,6.6358,6.6528,6.6502,6.6458,6.6377,6.6533,6.6599,6.6625,6.6278,6.6276,6.6274,6.6272,0,0,6.5776,6.5862,6.5893,6.5933,6.6004,6.6077,6.6185,6.6273,6.6326,6.6389,6.648,6.6606,6.6567,6.6616,6.6611,6.6689,6.6848,6.6635,6.6637,6.6674,6.7041,6.7074,6.7105,6.6829,6.6834,6.6838,6.7036,0,6.596,6.6148,6.6149,6.6323,6.6412,6.6378,6.6472,6.6527,6.6548,6.6627,6.665,6.674,6.668,6.671,6.6785,6.6813,6.6921,6.6798,6.6915,6.6919,6.69,6.7139,6.7173,6.7357,6.7061,6.7066,6.7069,0,6.6199,6.6272,6.6454,6.6516,6.6553,6.6637,6.672,6.6796,6.6858,6.6868,6.6926,6.6911,6.7023,6.6939,6.7094,6.701,6.7059,6.708,6.7087,6.7097,6.7003,6.7157,6.7416,6.7444,6.7109,6.7106,6.7103,0,6.635,6.6492,6.6621,6.6657,6.6731,6.6791,6.6825,6.6883,6.6937,6.701,6.7046,6.7131,6.7177,6.7244,6.7254,6.7192,6.7411,6.7327,6.7423,6.7423,6.747,6.7467,6.7742,6.7501,6.7501,6.75,6.7499,0,6.6555,6.6669,6.669,6.6769,6.6896,6.6898,6.7024,6.7053,6.7105,6.7191,6.7167,6.7248,6.7255,6.734,6.7348,6.7476,6.7497,6.751,6.7511,6.7512,6.7511,6.7543,6.7531,6.7507,6.7506,6.7504,6.7503,0,6.6744,6.6762,6.6901,6.6961,6.6979,6.707,6.7122,6.7198,6.7218,6.7327,6.7353,6.7384,6.7482,6.7498,6.7613,6.7619,6.7773,6.7761,6.7752,6.7751,6.7847,6.7838,6.8152,6.8194,6.7925,6.7928,6.793,0,6.6873,6.696,6.7031,6.7086,6.7124,6.7214,6.727,6.7276,6.7335,6.7415,6.7483,6.7579,6.7655,6.7814,6.7848,6.7936,6.7926,6.8031,6.7939,6.7939,6.7929,6.7924,6.7934,6.8048,6.8051,6.8053,6.8055,0,6.7103,6.7109,6.719,6.7276,6.7344,6.7412,6.7476,6.7524,6.7539,6.7607,6.7707,6.7767,6.7886,6.7982,6.8071,6.8107,6.8085,6.8084,6.8111,6.8113,6.8105,6.8112,6.7801,6.8076,6.8074,6.8072,6.8071,6.807,6.7267,6.7344,6.7406,6.7499,6.7548,6.761,6.7685,6.7716,6.78,6.7897,6.7896,6.8007,6.807,6.8188,6.823,6.8318,6.8284,6.8323,6.8333,6.8343,6.8353,6.8092,6.8334,6.8333,6.8333,6.8332,6.8332,0,6.7496,6.7535,6.762,6.7712,6.7786,6.7759,6.783,6.7893,6.7991,6.8052,6.8129,6.8247,6.8341,6.8383,6.8476,6.8539,6.8531,6.8563,6.8559,6.8568,6.8377,6.8344,6.8568,6.8568,6.8568,6.8568,6.8568,6.8568,6.7624,6.7753,6.7767,6.7922,6.7961,6.8069,6.8112,6.817,6.8219,6.8351,6.8429,6.8457,6.8512,6.8609,6.8695,6.8705,6.8741,6.8779,6.8784,6.8605,6.8581,6.8558,6.8528,6.8786,6.8786,6.8968,6.897,6.8971]},{"header":{"parameterUnit":"m.s-1","parameterCategory":1,"la1":30.2991,"la2":30.254,"lo1":-89.0895,"lo2":-89.0444,"dy":0.0017,"dx":0.0017,"nx":28,"ny":28,"refTime":"2025-03-18T09:00:00:Z","depth":0,"parameterNumber":3,"parameterNumberName":"V-component_of_WINDS"},"data":[0,0,0,0,0,0,0,0,0,0,0,0,0,0,0,0,0,0,0,0,0,0,0,0,0,0,0,0,0,0,0,0,0,0,0,0,0,0,0,0,0,0,0,0,0,0,0,0,0,0,0,0,0,0,0,0,0,0,-7.336,-7.3362,0,-7.3556,-7.3559,-7.3561,-7.3531,-7.3528,-7.3525,-7.3522,-7.3722,-7.373,-7.3738,0,0,0,0,0,0,0,0,0,0,0,0,0,-7.2959,-7.2967,-7.3359,-7.3362,-7.3364,-7.3556,-7.3559,-7.3561,-7.3532,-7.3528,-7.3524,-7.352,-7.3719,-7.3729,-7.3739,0,0,0,0,0,0,0,0,0,0,0,0,0,-7.3142,-7.2969,-7.3359,-7.3373,-7.3376,-7.3555,-7.3559,-7.3562,-7.3533,-7.3528,-7.3523,-7.3518,-7.3716,-7.3728,-7.374,-7.3918,0,0,-7.3779,-7.3784,0,0,0,0,0,0,0,0,-7.3132,-7.3157,-7.3368,-7.3372,-7.3376,-7.3514,-7.3491,-7.3681,-7.3534,-7.3473,-7.3522,-7.3516,-7.3657,-7.3674,-7.3721,-7.3927,-7.3936,-7.378,-7.3788,-7.3793,-7.3797,0,0,0,0,0,0,0,-7.3119,-7.3148,-7.3437,-7.3372,-7.3376,-7.337,-7.339,-7.3527,-7.359,-7.3478,-7.3477,-7.35,-7.3658,-7.3709,-7.3726,-7.3939,-7.378,-7.3791,-7.3799,-7.3804,-7.4303,-7.4308,0,0,0,0,0,0,-7.3103,-7.3138,-7.3431,-7.3443,-7.3239,-7.3381,-7.3404,-7.3475,-7.3589,-7.3601,-7.3504,-7.3498,-7.369,-7.3711,-7.3733,-7.395,-7.3793,-7.3805,-7.3812,-7.4297,-7.4304,-7.431,0,0,0,0,0,0,-7.3094,-7.3129,-7.3423,-7.329,-7.3327,-7.3393,-7.3473,-7.3481,-7.3533,-7.3609,-7.362,-7.3546,-7.3687,-7.3715,-7.3873,-7.3956,-7.381,-7.3822,-7.4291,-7.4299,-7.4307,-7.4384,0,0,0,0,0,0,-7.3083,-7.3126,-7.3194,-7.3292,-7.3334,-7.356,-7.3478,-7.3489,-7.3555,-7.3549,-7.365,-7.3662,-7.3685,-7.3854,-7.3885,-7.3971,-7.3832,-7.4283,-7.4294,-7.4304,-7.4375,-7.4394,-7.4411,0,0,0,0,0,-7.3069,-7.3207,-7.3198,-7.3233,-7.342,-7.3564,-7.3589,-7.3613,-7.3562,-7.3631,-7.368,-7.3659,-7.3942,-7.3871,-7.3905,-7.3996,-7.4278,-7.4291,-7.4304,-7.4366,-7.4391,-7.4411,0,0,0,0,0,0,-7.3116,-7.322,-7.3211,-7.3385,-7.3466,-7.3559,-7.3647,-7.3638,-7.3735,-7.3725,-7.3751,-7.3774,-7.3934,-7.3981,-7.3899,-7.4176,-7.4103,-7.4124,-7.4139,-7.4163,-7.4181,-7.4166,-7.3842,0,0,0,0,0,-7.3147,-7.3255,-7.334,-7.3485,-7.3527,-7.358,-7.3644,-7.3656,-7.3741,-7.3775,-7.3835,-7.3919,-7.4027,-7.4097,-7.4201,-7.4382,-7.4404,-7.4462,-7.448,-7.4495,-7.4512,-7.4613,-7.464,-7.4352,-7.4352,-7.4352,0,0,-7.3211,-7.3281,-7.3348,-7.3497,-7.3561,-7.3673,-7.3609,-7.373,-7.3814,-7.3793,-7.3946,-7.3994,-7.4089,-7.426,-7.4338,-7.4303,-7.4597,-7.4511,-7.4522,-7.4532,-7.4629,-7.4656,-7.4681,-7.4361,-7.4359,-7.4358,0,0,-7.3385,-7.3449,-7.3578,-7.3645,-7.3744,-7.3779,-7.381,-7.3906,-7.3937,-7.4092,-7.408,-7.418,-7.4365,-7.4434,-7.4493,-7.4698,-7.4682,-7.4731,-7.4826,-7.4925,-7.4948,-7.4968,-7.5042,-7.5068,-7.4748,-7.4748,-7.4748,0,-7.3452,-7.3621,-7.3645,-7.3769,-7.3836,-7.3824,-7.3956,-7.4019,-7.4147,-7.4193,-7.4154,-7.4388,-7.4451,-7.4638,-7.4689,-7.4737,-7.4774,-7.4719,-7.4943,-7.4963,-7.4982,-7.5054,-7.5081,-7.4753,-7.4752,-7.4752,-7.4751,0,-7.3699,-7.3817,-7.3909,-7.4034,-7.4112,-7.4238,-7.4283,-7.4358,-7.4365,-7.4404,-7.4563,-7.4639,-7.4758,-7.4804,-7.481,-7.4994,-7.497,-7.4936,-7.4864,-7.5015,-7.5082,-7.5109,-7.4761,-7.4759,-7.4757,-7.4756,0,0,-7.3906,-7.4046,-7.408,-7.4138,-7.4248,-7.4339,-7.4467,-7.4585,-7.465,-7.4739,-7.4847,-7.5006,-7.4976,-7.5044,-7.5058,-7.5145,-7.5304,-7.5101,-7.5104,-7.5137,-7.5513,-7.5538,-7.5569,-7.5295,-7.5301,-7.5305,-7.5505,0,-7.4092,-7.4317,-7.4345,-7.4545,-7.4655,-7.4647,-7.4759,-7.4839,-7.488,-7.4979,-7.5025,-7.5137,-7.5089,-7.513,-7.5216,-7.5267,-7.538,-7.5253,-7.5396,-7.5401,-7.5373,-7.5604,-7.563,-7.5815,-7.5532,-7.5536,-7.5539,0,-7.4338,-7.4436,-7.4648,-7.4746,-7.4793,-7.4892,-7.5004,-7.5099,-7.5191,-7.5215,-7.5292,-7.5297,-7.5429,-7.5353,-7.5536,-7.5449,-7.551,-7.5545,-7.5552,-7.5566,-7.5479,-7.5625,-7.5875,-7.5903,-7.5581,-7.5577,-7.5574,0,-7.4469,-7.4654,-7.4806,-7.4855,-7.4973,-7.5043,-7.5096,-7.5182,-7.5253,-7.5351,-7.5397,-7.5509,-7.557,-7.5657,-7.5692,-7.5633,-7.5875,-7.5801,-7.5899,-7.5899,-7.595,-7.5946,-7.6214,-7.5989,-7.5988,-7.5988,-7.5987,0,-7.4674,-7.4804,-7.4867,-7.496,-7.5106,-7.5137,-7.5281,-7.5331,-7.5409,-7.5512,-7.5512,-7.5608,-7.5649,-7.5753,-7.5781,-7.593,-7.5957,-7.5981,-7.5987,-7.5981,-7.5979,-7.6021,-7.6009,-7.5995,-7.5994,-7.5992,-7.5991,0,-7.4845,-7.4892,-7.5056,-7.5155,-7.5183,-7.5287,-7.5372,-7.5462,-7.5504,-7.5634,-7.5667,-7.5732,-7.5854,-7.5898,-7.6046,-7.6065,-7.6238,-7.6233,-7.6208,-7.6209,-7.6306,-7.6296,-7.661,-7.6654,-7.64,-7.6402,-7.6404,0,-7.4972,-7.5072,-7.5183,-7.5252,-7.5308,-7.5419,-7.5492,-7.5527,-7.5603,-7.5717,-7.5794,-7.5916,-7.6015,-7.6211,-7.6272,-7.6386,-7.6384,-7.6486,-7.6401,-7.6393,-7.6387,-7.638,-7.6391,-7.6502,-7.6504,-7.6506,-7.6508,0,-7.5194,-7.5213,-7.5317,-7.5432,-7.5518,-7.561,-7.5698,-7.5755,-7.5804,-7.5889,-7.6015,-7.6092,-7.6245,-7.6367,-7.6484,-7.6538,-7.6533,-7.6535,-7.6564,-7.6559,-7.6541,-7.6553,-7.6252,-7.6527,-7.6525,-7.6524,-7.6523,-7.6522,-7.5347,-7.5437,-7.553,-7.5647,-7.5718,-7.5801,-7.5892,-7.5946,-7.6052,-7.6179,-7.6194,-7.633,-7.6421,-7.6579,-7.6639,-7.6746,-7.6718,-7.6759,-7.677,-7.678,-7.6788,-7.6524,-7.6767,-7.6767,-7.6766,-7.6766,-7.6766,0,-7.557,-7.563,-7.5737,-7.5862,-7.5955,-7.5943,-7.6041,-7.6119,-7.6239,-7.6325,-7.6424,-7.657,-7.6689,-7.676,-7.6879,-7.6951,-7.6952,-7.6982,-7.6977,-7.699,-7.6805,-7.6769,-7.698,-7.698,-7.6979,-7.6979,-7.6979,-7.6979,-7.5696,-7.5848,-7.5879,-7.6067,-7.6126,-7.6259,-7.6317,-7.6394,-7.6464,-7.6627,-7.6726,-7.6772,-7.6853,-7.6979,-7.7088,-7.7106,-7.715,-7.7183,-7.7198,-7.7024,-7.7002,-7.6981,-7.6947,-7.7192,-7.7192,-7.7374,-7.7375,-7.7377]}]]